Theta_e
305 303 302 302 302 302 301 300 301 301 300 300 299 299 298 298 298 298 298 298 298 299 299 299 299 299 299 299 299 299 299 299 299 299 299 299 299 299 299 299 299 299 299 299 299 298 298 298 298 298 298 298 297 297 297 297 297 296 296 296 296 296 296 296 297 297 296 296 296 296 295 295 295 295 295 295 295 295 296 296 296 296 297 297 297 297
302 302 301 300 301 302 300 298 298 299 300 299 299 298 298 298 298 298 297 298 298 299 299 299 299 298 298 298 298 298 299 299 299 299 299 299 299 298 298 298 298 298 298 298 298 298 298 297 297 297 297 297 297 297 296 296 296 296 295 295 295 295 295 295 295 295 295 295 295 294 294 294 294 294 294 294 295 295 295 295 295 296 296 296 296 296
300 300 300 299 300 300 299 297 296 297 298 298 298 298 297 297 297 298 298 298 298 298 298 298 298 298 297 297 298 298 298 298 298 298 298 298 298 297 297 297 297 297 297 297 297 297 297 297 296 296 296 296 296 296 296 295 295 295 295 295 295 295 294 294 294 294 294 294 293 293 293 293 293 293 293 293 294 294 294 294 294 294 295 295 295 295
299 299 298 298 298 299 298 297 296 295 296 296 297 297 296 296 296 297 297 297 297 297 298 298 298 298 297 298 298 298 298 298 297 297 297 297 297 297 297 296 296 296 296 297 297 296 296 296 296 295 295 295 295 295 295 295 294 294 294 294 294 294 293 293 293 293 293 293 292 292 292 292 291 291 292 292 292 293 293 293 293 293 293 294 294 294
298 298 298 297 297 297 297 297 296 295 295 295 295 295 295 295 295 296 296 296 296 296 296 296 297 297 297 297 297 297 297 297 296 296 296 296 296 296 296 296 296 296 296 296 296 296 295 295 295 295 295 295 295 294 294 294 294 293 293 293 293 293 293 292 292 292 292 291 291 291 290 290 290 290 290 290 291 291 292 292 292 292 293 293 293 293
298 298 298 297 296 296 296 295 295 295 295 294 293 293 293 294 295 295 295 296 296 296 296 296 296 296 296 296 296 296 296 296 296 295 295 296 296 296 296 296 296 295 295 295 295 295 295 295 295 295 295 294 294 294 293 293 293 293 293 293 292 292 292 292 291 291 290 290 290 289 289 288 288 288 288 288 288 289 290 291 292 292 292 293 293 293
297 297 297 296 296 295 295 294 294 294 294 293 293 293 293 293 294 295 295 295 295 295 295 295 295 295 295 295 295 295 295 294 294 294 294 294 295 295 295 295 295 295 295 295 295 295 295 295 295 294 294 294 293 293 293 293 293 292 292 292 292 292 291 291 290 290 290 289 289 289 288 288 288 287 287 286 286 287 289 290 291 292 292 293 293 293
296 296 296 296 295 295 294 294 293 293 293 293 293 293 293 294 294 295 295 295 295 295 295 294 294 294 294 293 293 293 293 293 293 293 293 293 293 293 293 294 294 294 294 294 294 294 294 294 294 293 293 293 293 293 292 292 292 292 292 291 291 291 290 290 290 289 289 289 288 288 288 288 287 287 287 286 286 286 288 289 290 291 292 292 293 293
297 295 295 295 295 294 293 293 293 293 293 293 293 294 294 294 294 295 295 295 295 294 294 294 294 293 293 292 292 292 292 292 292 292 292 292 292 292 292 292 292 292 293 293 292 292 292 292 292 292 292 292 292 292 292 291 291 291 291 290 290 290 289 289 289 288 288 288 288 288 287 287 287 287 287 286 286 287 288 289 290 291 291 292 292 292
298 296 295 294 295 295 294 293 292 293 293 293 294 294 294 294 294 294 294 294 294 294 294 294 293 293 292 291 291 291 291 291 291 291 291 291 291 291 291 291 291 291 291 291 291 290 290 290 291 291 291 290 290 290 290 290 290 289 289 289 288 288 288 288 288 287 287 287 287 287 287 287 287 287 286 287 287 288 289 289 290 290 291 291 291 292
296 296 295 294 294 294 294 294 293 293 293 293 294 294 294 294 295 295 294 294 294 294 293 293 293 293 292 291 291 290 291 291 291 290 290 290 290 290 290 290 290 290 289 289 289 289 289 289 289 289 289 289 289 289 289 289 288 288 288 287 287 287 287 287 287 287 287 286 286 286 285 285 286 286 286 287 288 289 289 290 290 290 291 291 291 291
295 295 294 294 293 293 293 294 294 294 293 293 294 294 294 294 295 295 295 294 294 293 293 293 293 292 291 291 290 290 290 290 290 290 289 289 289 289 289 289 289 289 288 288 288 288 288 288 288 288 288 289 288 288 288 288 288 288 287 287 287 287 287 287 287 286 286 285 285 284 284 285 285 286 287 288 289 289 289 290 290 290 290 290 290 290
295 294 294 293 293 293 293 293 293 293 293 293 294 294 294 294 294 294 295 295 294 293 293 292 292 291 291 291 290 290 290 290 289 289 289 289 288 288 288 288 288 288 288 288 288 287 287 287 287 288 288 288 288 288 288 288 288 288 288 287 287 287 287 286 286 285 284 284 284 285 285 285 285 286 287 288 289 289 289 290 290 290 290 290 290 290
294 294 294 293 293 293 293 293 293 293 293 294 294 295 295 294 294 294 294 294 294 293 292 292 292 291 291 291 291 290 290 290 289 289 288 288 288 288 288 288 288 288 288 287 287 287 287 287 287 287 287 287 288 288 288 287 287 287 287 287 287 286 286 285 285 284 284 285 286 286 286 286 286 286 287 288 288 289 289 289 290 290 290 290 290 290
294 294 294 293 293 293 293 293 294 293 294 294 294 294 294 294 294 293 293 293 293 293 292 292 291 291 291 291 290 290 290 289 289 289 288 288 288 288 288 288 287 287 287 287 287 287 287 287 287 287 287 287 287 287 287 287 287 287 286 286 286 286 285 285 284 284 285 286 287 288 288 288 288 288 288 288 288 289 289 289 289 290 290 290 290 290
295 294 294 293 293 293 294 294 294 294 294 294 294 294 293 293 293 293 292 292 292 291 291 290 290 290 290 290 290 289 289 289 289 289 289 288 288 287 287 287 287 287 287 287 287 287 287 287 287 287 287 287 287 287 286 286 286 286 286 286 285 285 285 285 284 285 286 287 288 288 288 288 288 288 289 289 289 289 289 289 289 289 290 290 290 290
295 294 294 294 294 294 294 294 294 294 293 293 293 293 293 293 293 292 292 291 290 290 290 289 289 289 289 289 289 289 289 289 289 289 288 288 288 287 287 287 287 287 287 287 287 287 287 287 286 286 286 285 285 285 285 285 285 286 286 286 286 286 285 285 285 286 286 287 288 288 288 288 288 289 289 289 289 289 289 289 289 289 289 290 290 290
295 295 294 294 294 294 294 294 294 293 293 293 292 292 292 292 292 292 291 290 290 290 289 289 289 289 289 288 288 288 288 288 288 288 288 288 287 287 287 287 286 286 286 286 286 286 286 286 286 285 284 284 283 283 284 285 285 286 286 286 286 286 286 286 286 286 286 287 288 288 288 288 288 288 289 289 289 289 289 289 289 289 289 290 290 290
295 295 295 294 294 294 294 294 293 293 292 292 292 291 291 291 292 292 291 290 290 289 289 289 289 289 288 288 288 287 287 287 287 287 287 287 287 287 286 286 285 285 284 285 285 285 285 285 285 284 283 283 283 284 284 284 285 286 286 286 286 286 286 286 286 286 286 287 287 288 288 288 288 288 288 289 289 289 289 289 289 289 290 290 290 290
295 295 295 295 295 294 293 293 293 292 292 292 292 291 291 291 290 291 290 290 290 289 289 289 289 288 288 288 288 287 287 287 287 287 287 287 287 286 285 284 284 283 284 284 284 285 285 284 284 283 283 284 284 284 284 285 286 286 287 287 287 287 286 286 286 286 286 286 287 287 288 288 288 288 288 289 289 289 289 289 289 289 290 290 290 290
295 295 294 294 294 294 293 292 292 292 292 291 291 291 290 290 290 290 289 289 289 289 288 288 288 288 287 287 287 287 287 286 286 286 286 286 286 285 284 283 283 283 283 284 284 284 284 284 283 283 283 284 284 284 285 285 286 286 287 287 286 286 286 286 286 286 286 286 286 287 287 288 288 288 289 289 289 289 289 289 289 289 290 290 290 290
294 294 293 293 293 293 293 292 291 291 291 290 290 290 290 289 289 289 288 288 288 288 288 288 288 287 287 287 287 286 286 286 286 286 285 285 285 284 283 283 283 283 283 283 284 284 283 283 283 283 284 284 284 284 284 285 286 286 286 286 286 285 285 285 285 285 285 286 286 286 287 287 288 288 289 289 289 289 289 289 289 289 289 290 290 290
294 293 292 292 292 292 292 292 291 290 290 289 289 289 289 289 288 288 288 288 287 287 287 287 287 287 287 287 286 286 286 286 285 285 285 285 285 284 283 283 283 283 283 283 283 283 283 283 283 284 284 284 284 284 284 285 285 286 286 285 285 285 284 284 284 284 285 285 286 286 287 287 288 288 289 289 289 289 289 289 289 289 289 290 290 290
292 292 291 291 290 291 291 290 290 290 289 289 289 289 288 288 288 288 287 287 287 287 287 287 287 286 286 286 286 286 285 285 285 285 285 285 285 285 284 284 283 283 282 282 282 283 283 284 284 284 284 284 284 284 284 285 285 285 285 285 285 285 285 285 285 286 286 287 287 287 287 288 288 288 289 289 289 289 289 289 289 289 289 290 290 290
291 291 290 290 290 290 290 289 289 289 289 288 288 288 288 288 287 287 287 287 287 287 287 286 286 286 286 285 285 285 285 285 285 285 285 285 285 285 284 284 283 283 282 283 283 283 284 284 284 284 284 284 285 285 285 285 285 285 284 284 284 285 286 286 287 287 287 287 287 287 288 288 288 288 289 289 289 289 289 289 289 289 289 289 289 289
290 290 290 289 289 289 289 289 288 288 288 288 288 288 288 287 287 287 287 287 286 286 286 286 285 285 285 285 285 285 285 285 285 285 285 285 285 285 284 284 283 283 283 283 283 284 284 284 285 285 285 285 285 285 285 284 284 284 284 284 284 285 286 286 287 287 287 287 287 287 287 287 287 287 288 288 288 288 288 288 288 288 288 288 288 288
289 289 289 289 288 288 288 288 288 288 288 288 287 287 287 287 287 287 286 286 286 286 285 285 285 285 285 285 286 286 286 286 286 286 285 285 285 285 284 283 283 283 283 283 283 284 284 285 285 285 285 285 285 284 284 284 284 284 284 284 284 285 285 285 285 285 285 285 285 285 285 286 286 286 286 286 286 287 287 287 287 287 287 287 287 287
288 288 288 288 288 288 288 287 287 287 287 287 287 287 286 286 286 286 285 285 285 285 285 285 285 285 285 286 286 286 286 286 286 286 285 285 284 284 284 283 283 283 283 283 283 284 284 285 285 285 285 285 285 284 284 284 285 285 285 284 284 284 285 285 285 285 285 285 285 285 285 285 285 285 285 285 286 286 286 286 286 286 287 287 287 287
288 288 288 288 288 287 287 287 287 287 286 286 286 286 285 285 285 285 285 285 285 285 285 285 285 285 285 286 286 285 285 285 285 285 285 284 284 284 284 283 283 283 283 283 284 284 285 285 285 285 285 285 285 285 284 284 285 285 285 285 285 285 285 285 285 285 285 285 285 285 285 285 286 285 286 285 286 286 286 286 286 286 286 286 286 286
288 287 287 287 287 287 287 287 286 286 286 285 285 285 285 285 284 284 284 284 284 284 285 285 285 285 285 285 285 285 285 285 285 285 284 284 284 284 284 283 283 283 283 283 284 284 285 285 285 285 285 285 285 285 285 284 284 284 285 285 285 285 285 285 285 285 285 285 285 285 285 285 285 286 286 286 286 286 286 286 287 287 286 286 286 286
287 287 287 287 286 286 286 286 286 286 285 285 285 285 284 284 284 284 283 283 283 284 284 284 284 284 284 285 283 282 284 284 284 284 284 284 284 283 283 283 283 283 283 283 283 283 282 284 285 285 285 285 285 285 284 284 284 284 284 285 285 285 285 285 285 285 285 285 285 285 285 285 285 285 286 286 286 286 286 286 287 287 287 286 286 286
286 286 286 286 286 285 285 285 285 285 285 284 284 284 284 283 283 283 283 283 283 283 283 284 284 284 284 284 284 283 284 284 284 284 283 283 283 283 283 283 283 283 283 283 283 283 281 283 285 285 285 284 284 284 284 284 284 284 285 285 285 285 285 285 285 285 285 285 285 285 285 285 285 285 285 285 285 285 285 286 286 286 286 286 286 286
285 285 285 285 285 285 285 285 285 284 284 284 283 283 283 283 282 282 282 282 282 282 283 283 283 283 284 284 284 284 284 284 283 283 283 283 283 283 283 283 283 283 283 283 283 283 283 283 284 284 284 284 284 284 284 284 284 284 285 285 285 285 285 285 285 285 285 285 285 285 285 285 285 285 285 285 285 285 285 285 285 286 286 286 286 286
285 285 285 285 284 284 284 284 284 284 283 283 283 283 282 282 282 282 281 281 281 281 282 282 282 283 283 283 283 283 284 283 283 283 283 283 283 283 283 283 283 283 283 283 283 283 283 283 283 284 284 284 284 284 284 284 284 284 285 285 285 285 285 285 285 285 285 285 285 285 285 285 285 285 285 285 285 285 285 285 285 285 286 286 286 286
285 285 284 284 284 284 284 284 284 283 283 283 283 283 282 282 282 282 281 281 281 281 281 281 281 282 282 282 282 282 283 283 283 283 283 283 283 283 283 283 283 282 283 283 283 283 283 283 283 283 283 283 283 284 284 284 284 284 285 285 285 285 285 285 285 285 285 285 285 285 285 285 285 285 285 285 285 285 285 285 285 285 286 286 286 286
285 284 284 284 284 284 284 284 283 283 283 283 283 283 283 282 282 282 282 281 281 280 280 280 280 281 281 281 282 282 282 282 282 282 283 283 283 282 282 282 283 282 282 283 283 283 283 283 283 283 283 283 283 283 283 284 284 284 284 285 285 285 285 285 285 285 285 285 285 285 285 285 285 285 285 285 285 285 285 285 285 285 285 285 285 286
284 284 284 284 284 284 284 283 283 283 283 283 283 283 283 282 282 282 282 281 281 280 280 280 280 280 280 281 281 281 282 282 282 282 282 283 282 282 282 282 282 282 282 282 282 283 283 283 283 282 282 282 282 283 283 283 283 284 284 284 284 284 285 285 285 285 285 285 285 285 285 285 285 285 285 285 285 284 284 284 284 284 284 284 284 284
284 284 284 284 284 284 283 283 283 283 283 283 283 283 283 282 282 282 281 281 281 280 280 280 280 280 280 280 280 281 281 281 281 282 282 282 282 282 282 282 282 282 282 282 282 282 282 282 282 282 282 282 282 282 282 282 283 283 283 284 284 284 284 284 284 284 285 285 285 285 285 285 285 285 285 284 284 284 284 284 284 284 284 284 284 284
284 284 284 284 284 284 283 283 283 283 283 283 283 283 282 282 282 281 281 281 280 280 280 280 280 279 279 279 280 280 280 280 281 281 282 282 282 282 282 282 282 282 282 282 282 282 282 282 282 282 282 282 282 282 282 282 282 282 282 283 283 284 284 284 284 284 284 284 284 284 284 284 284 284 284 284 284 284 284 284 284 284 284 284 284 284
284 284 284 284 284 283 283 283 283 283 283 283 282 282 282 282 282 281 281 281 280 280 280 279 279 279 279 279 279 279 280 280 280 281 281 282 282 282 282 282 282 282 282 282 282 282 282 282 282 281 281 282 282 282 282 282 282 282 282 282 283 284 284 284 284 284 284 284 284 284 284 284 284 284 284 284 284 284 284 284 284 284 284 283 283 283
284 284 284 283 283 283 283 283 283 282 282 282 282 282 282 282 281 281 281 280 280 280 280 279 279 279 279 279 279 279 279 279 279 280 280 281 281 282 282 282 282 282 282 282 282 282 281 281 281 281 281 281 281 281 281 281 281 281 281 281 282 283 284 284 284 284 284 284 284 284 284 284 284 284 284 284 284 284 284 284 284 283 283 283 283 283
284 284 283 283 283 283 283 282 282 282 282 282 282 282 282 282 281 281 280 280 280 279 279 279 279 279 279 279 279 279 279 279 279 279 279 280 280 281 281 281 282 282 282 281 281 281 281 281 281 281 281 281 280 280 281 281 281 281 281 281 281 282 283 284 284 284 284 284 284 284 284 284 284 283 283 283 284 284 283 283 283 283 283 283 283 283
284 283 283 283 283 283 282 282 282 282 282 282 282 282 282 281 281 280 280 280 279 279 279 279 279 279 279 279 279 279 279 279 279 279 279 279 279 280 280 280 281 281 281 281 280 280 280 280 280 280 280 280 280 280 280 280 281 281 281 281 281 281 282 283 284 284 284 283 283 283 283 283 283 283 283 283 283 283 283 283 283 283 283 283 283 283
284 284 283 283 283 282 282 282 282 282 282 282 281 281 281 281 280 280 279 279 279 279 279 279 279 279 279 279 280 280 280 280 280 279 279 279 279 279 279 279 280 280 280 280 280 280 280 280 280 280 280 280 280 280 280 280 280 281 281 281 281 281 281 282 283 283 283 283 283 283 283 283 283 283 283 283 283 283 283 283 283 283 283 283 283 283
284 283 283 283 283 282 282 282 282 281 281 281 281 281 281 280 280 280 279 279 279 279 279 279 279 279 279 279 280 280 280 280 280 280 280 280 280 280 280 280 280 280 280 280 280 280 280 280 280 281 281 280 280 280 280 280 280 280 281 281 281 281 281 282 282 282 282 282 283 283 283 282 282 282 283 283 283 284 283 283 283 283 283 283 283 283
283 283 283 283 282 282 282 281 281 281 281 281 281 280 280 280 280 279 279 279 279 279 279 279 279 279 279 279 279 279 279 280 280 280 280 280 281 281 281 281 281 281 281 281 281 281 281 281 281 281 280 280 280 280 280 280 280 280 281 281 281 281 281 281 282 282 282 282 282 282 282 282 282 282 282 283 283 283 283 283 283 283 283 283 283 283
282 282 282 282 282 282 281 281 281 281 280 280 280 280 280 280 279 279 280 280 280 279 279 279 279 279 279 279 279 279 279 279 280 280 280 281 281 282 282 282 282 282 282 282 282 281 281 281 281 281 280 280 279 280 280 280 280 280 280 281 281 281 281 281 281 282 282 281 281 282 282 282 282 282 282 282 282 283 283 283 283 283 283 282 282 283
281 281 281 281 281 281 281 281 280 280 280 280 280 280 280 279 279 280 280 280 280 280 279 279 279 279 279 279 279 279 279 279 279 279 280 281 281 282 282 282 282 282 282 282 282 282 281 281 281 280 280 279 279 279 280 280 280 280 280 281 281 280 281 281 281 282 281 281 282 281 281 281 281 282 282 282 282 282 282 282 282 282 282 282 282 282
280 280 280 280 280 280 280 280 280 280 280 280 280 280 279 279 279 280 280 280 280 280 279 279 279 279 279 279 279 279 279 279 279 279 279 280 281 281 282 282 282 282 282 282 282 281 281 280 280 279 279 279 279 279 279 280 280 280 280 280 280 280 280 281 281 282 282 282 282 282 282 281 282 282 282 282 282 282 282 282 282 282 282 282 282 282
279 279 279 279 279 279 279 279 279 279 279 279 279 279 279 279 280 280 280 280 280 280 280 279 279 279 279 279 279 279 279 279 279 279 279 280 280 281 281 282 282 282 282 281 281 280 280 279 279 279 279 280 280 280 280 280 280 280 280 281 281 281 280 281 281 282 282 282 282 282 282 282 282 282 282 282 282 282 282 282 282 282 282 282 282 282
279 279 279 279 279 279 279 279 279 279 279 279 279 279 279 279 280 280 280 280 280 280 280 280 279 279 279 279 279 279 279 279 279 279 279 279 280 280 281 281 282 282 281 280 280 279 279 279 279 279 280 281 281 281 281 281 280 280 280 281 281 281 281 281 282 282 282 282 282 282 282 282 282 282 282 282 282 282 282 282 282 282 282 282 282 282
Wind_Speed
15 15 14 13 12 11 10 9 8 8 9 10 11 11 10 9 8 7 6 6 6 7 8 10 11 11 10 9 8 7 7 7 6 5 5 4 4 4 4 3 3 3 3 2 2 2 2 2 3 3 3 4 4 4 4 3 3 3 2 2 2 2 3 3 3 3 3 3 3 3 3 3 3 3 3 3 3 3 3 3 4 4 4 4 4 5
15 14 13 12 11 10 9 8 7 7 8 10 12 13 12 11 10 9 9 8 8 9 9 10 10 10 10 10 8 7 7 6 5 5 4 4 4 3 3 2 2 2 2 3 3 3 3 3 3 4 4 4 4 3 3 3 2 2 2 3 3 3 3 3 4 4 4 4 4 4 4 3 3 3 3 3 3 3 4 4 4 4 4 5 5 5
16 14 13 11 10 10 10 8 7 7 7 9 12 14 14 12 12 12 12 12 11 11 11 11 11 10 10 10 9 8 6 6 5 5 4 4 4 3 3 3 3 3 3 3 4 4 4 4 4 4 4 3 3 2 2 2 2 2 3 3 4 4 4 5 5 5 5 5 5 5 5 4 4 4 4 3 3 4 4 5 5 5 5 5 5 5
17 16 14 13 11 11 11 10 9 7 7 7 10 13 15 14 13 13 13 13 13 13 13 12 12 11 11 11 9 8 7 7 6 6 5 4 4 4 4 4 4 4 4 4 4 4 4 4 3 3 3 2 1 1 2 2 3 3 4 4 5 5 5 5 5 5 5 5 5 5 5 5 5 5 5 4 4 5 5 5 6 6 6 6 6 6
17 16 15 14 13 12 12 11 10 9 8 8 9 11 13 14 14 14 13 12 12 13 13 12 11 10 10 10 9 7 7 7 7 6 5 5 5 5 4 4 4 4 4 4 4 3 3 3 2 2 2 2 2 3 3 4 4 4 5 5 5 5 5 5 5 5 5 5 6 6 6 6 6 6 6 6 6 6 6 6 6 6 6 6 6 6
16 15 15 14 14 13 12 11 11 10 9 9 8 9 11 12 14 14 13 12 11 11 11 10 8 7 7 7 7 7 7 7 6 6 5 5 5 5 4 4 4 4 4 4 3 3 3 3 3 3 3 4 4 5 5 5 6 6 6 6 6 6 6 6 6 6 6 7 7 7 7 7 7 8 8 8 7 7 7 6 6 6 6 6 6 6
16 15 14 14 13 13 12 11 10 10 10 10 10 9 9 10 11 12 11 9 8 8 7 6 6 6 5 5 5 5 5 5 5 6 6 6 6 6 5 5 5 5 4 4 3 3 3 4 4 5 5 6 6 6 7 7 7 7 7 7 7 7 7 7 7 8 8 8 9 9 9 9 9 9 9 9 9 9 8 7 7 7 7 7 6 6
16 15 15 14 13 12 12 11 10 10 10 11 11 10 10 10 10 10 9 8 7 6 6 5 6 6 6 5 5 5 5 5 5 5 5 6 6 6 6 6 5 5 5 4 4 5 5 6 6 7 7 7 7 7 8 8 8 8 8 8 8 8 9 9 9 9 10 10 10 10 10 10 10 10 10 10 10 9 9 8 7 7 7 7 6 6
17 16 15 15 14 14 12 11 11 11 11 11 11 11 10 11 11 10 10 9 8 7 6 6 6 6 6 6 5 5 4 4 4 4 4 4 4 5 5 5 5 5 5 5 5 5 6 6 7 7 8 8 8 8 8 8 9 9 9 9 10 10 10 10 10 11 11 11 11 11 12 12 12 12 11 11 10 9 9 8 7 7 7 7 6 6
18 18 16 15 14 13 13 12 12 12 12 12 12 11 10 11 11 11 11 10 10 9 8 7 7 7 7 6 6 5 4 3 3 3 3 3 3 3 4 4 5 5 5 5 5 5 6 6 7 7 8 8 8 8 8 9 9 9 9 10 10 10 11 11 11 12 12 12 13 13 13 13 13 12 12 11 10 9 8 8 7 7 7 7 6 6
17 17 16 14 12 11 10 10 11 13 14 14 13 12 11 11 11 12 13 12 11 10 10 9 9 9 9 8 7 6 5 4 4 3 3 4 4 4 5 5 5 5 5 5 6 6 6 6 6 6 7 7 7 8 8 8 9 9 10 10 10 10 11 11 12 12 13 13 14 14 13 13 13 12 11 9 9 8 7 7 7 7 7 6 6 6
16 15 14 13 12 10 9 9 10 13 15 14 13 12 12 12 11 12 13 14 13 12 11 11 11 11 11 10 9 7 6 5 5 5 5 5 6 6 6 6 6 6 6 6 6 6 6 5 5 5 6 6 7 7 8 8 9 9 9 9 10 10 11 12 12 13 13 13 13 12 11 11 10 10 9 8 7 7 7 6 6 6 6 6 6 6
16 15 14 13 12 12 11 10 12 13 15 15 14 13 13 13 12 11 12 13 13 13 13 12 12 12 11 11 10 8 7 6 6 6 6 6 6 6 6 6 6 6 6 6 6 6 5 5 5 6 6 7 7 7 8 8 9 9 9 9 10 10 11 12 13 13 12 11 9 8 8 7 7 7 7 7 6 6 6 6 6 6 6 6 6 5
15 14 13 13 12 12 13 13 14 15 16 16 15 14 13 13 13 12 11 13 13 13 13 13 12 12 11 11 10 9 8 8 7 7 7 7 7 6 6 6 6 6 6 6 6 6 6 6 6 7 7 8 8 9 9 10 10 10 10 11 11 12 12 13 13 12 9 7 6 5 5 4 4 5 5 5 6 5 5 5 5 5 5 5 5 5
16 15 14 13 13 14 14 15 15 15 15 16 15 14 13 14 13 13 12 13 14 13 12 12 12 11 11 11 10 10 9 9 8 8 7 7 7 6 6 6 6 6 6 7 7 7 7 7 8 8 8 9 10 10 10 11 12 12 12 12 12 12 13 12 11 9 6 5 4 4 4 4 3 4 4 4 5 5 5 5 5 5 5 5 5 5
17 16 15 14 14 15 15 15 15 14 14 14 14 13 13 13 13 13 13 14 14 14 12 11 10 9 9 10 11 10 10 9 8 8 7 7 7 7 7 6 6 7 8 8 8 8 9 9 9 10 10 10 11 11 11 11 11 11 11 11 11 11 11 11 9 6 5 4 5 5 4 4 4 3 4 4 4 4 5 5 5 5 5 5 5 5
16 16 15 16 16 15 15 15 14 14 14 14 14 13 13 14 14 13 13 14 14 13 11 10 7 4 5 7 9 10 9 8 7 7 7 7 7 7 7 7 8 8 9 9 10 10 10 10 10 10 11 11 11 11 11 10 10 9 9 9 10 10 10 9 7 5 5 5 5 5 4 4 4 4 3 4 4 4 4 4 5 5 5 5 5 5
16 16 16 16 16 15 15 15 15 14 15 15 14 14 13 14 14 14 13 13 12 11 10 10 7 4 3 3 5 8 8 7 7 7 7 8 8 7 7 8 9 10 11 11 11 11 10 10 10 10 10 10 9 9 9 9 8 8 8 8 9 9 9 8 7 6 5 5 5 5 5 4 4 4 4 4 4 4 4 5 5 5 5 5 6 6
16 16 16 15 15 15 15 16 15 15 16 15 15 14 13 13 13 13 13 12 11 11 10 9 8 6 4 4 4 6 7 7 7 7 7 8 9 8 8 9 10 11 11 11 11 10 10 9 9 9 9 8 7 7 6 7 7 7 7 7 8 8 8 7 7 6 6 6 6 5 5 5 5 5 5 5 5 5 5 5 5 5 5 6 6 6
15 15 14 14 15 15 15 15 16 16 16 15 14 14 13 13 13 13 13 12 11 11 10 9 8 7 7 6 6 6 7 7 7 7 7 9 10 10 9 9 9 9 9 9 9 9 9 8 8 8 8 7 6 6 5 5 6 6 6 7 7 8 8 7 7 7 7 7 6 6 6 6 6 5 5 5 5 5 6 6 6 6 6 6 6 7
14 13 13 12 14 15 15 15 15 15 14 14 13 13 13 13 13 13 12 12 11 11 11 9 8 7 7 7 7 7 8 7 7 6 7 8 9 9 8 7 7 7 7 8 8 8 8 8 8 7 7 7 7 6 6 6 6 6 7 7 8 8 8 8 7 7 7 7 7 7 7 6 6 6 6 6 6 6 6 6 6 6 7 7 7 7
12 12 12 12 13 14 15 15 15 14 13 12 12 12 12 12 12 12 12 12 11 10 9 8 8 8 8 7 7 8 9 8 7 7 6 6 7 7 5 5 5 6 7 7 7 7 7 7 7 7 7 8 8 8 7 6 6 6 7 8 8 9 8 8 7 7 7 7 7 7 7 6 6 6 6 6 6 6 7 7 7 7 7 7 7 7
11 12 11 11 11 12 13 14 13 13 12 11 11 11 11 11 11 11 11 11 10 9 9 9 9 9 9 9 9 9 10 9 9 8 6 4 4 5 3 4 5 6 7 7 7 7 7 7 7 7 7 8 9 8 7 7 6 7 8 8 8 8 7 6 6 6 6 6 6 6 6 5 5 6 6 6 6 6 6 7 7 7 7 7 7 7
11 11 10 10 10 11 12 12 12 12 12 11 10 10 10 9 9 9 9 10 10 10 10 10 10 9 9 9 9 9 10 10 10 8 6 4 4 5 4 4 5 6 6 6 6 6 7 6 6 7 8 8 8 7 6 6 6 6 7 8 7 7 6 5 5 5 5 5 5 5 5 5 5 5 6 6 6 6 6 6 7 7 7 7 7 8
10 10 10 9 9 10 10 11 11 12 11 11 10 10 10 9 9 9 9 9 9 9 9 9 8 8 8 9 9 9 10 10 9 8 7 5 5 5 5 5 5 6 6 5 5 6 6 6 6 6 7 6 6 5 3 3 3 4 5 6 6 5 5 4 4 4 5 5 5 5 5 6 6 6 6 6 7 7 7 7 7 8 8 8 8 9
9 9 9 8 8 8 8 9 10 10 10 10 10 10 10 10 9 9 9 9 9 9 8 7 7 8 8 8 8 8 9 9 9 8 8 6 5 5 5 4 5 5 6 6 6 6 6 5 4 4 4 4 2 1 0 1 2 3 3 3 4 4 4 4 4 4 5 5 5 6 6 7 7 7 8 8 8 9 9 9 9 10 10 10 10 11
7 7 7 7 7 7 7 7 7 8 8 9 9 9 9 9 9 9 9 9 9 9 8 7 6 7 7 6 5 6 7 8 8 8 8 7 6 4 4 4 4 6 7 7 7 6 5 3 2 2 3 3 2 2 2 2 3 2 2 1 2 3 3 4 4 4 4 4 5 5 6 7 7 8 8 9 9 10 10 10 11 11 11 11 12 13
7 7 7 7 7 7 7 6 6 6 6 7 8 8 8 8 8 8 9 9 9 9 8 7 7 6 5 4 4 5 6 7 7 8 7 7 5 4 4 4 5 6 7 8 8 5 3 1 2 3 3 3 2 2 2 2 2 2 1 0 1 2 3 3 3 3 4 4 4 5 6 6 7 7 8 9 9 10 10 10 11 11 11 12 13 13
8 8 8 8 8 8 8 8 7 6 5 5 6 7 7 7 7 7 8 8 8 8 8 8 7 6 5 5 5 6 6 7 8 8 8 7 6 5 5 5 5 6 7 7 6 4 0 2 3 3 3 3 1 0 1 2 3 2 2 1 1 2 2 3 3 3 4 4 4 5 5 6 6 7 7 8 9 9 10 10 10 11 11 12 13 14
9 9 9 9 9 9 9 8 8 7 6 5 5 6 7 7 7 7 7 8 8 8 9 9 8 7 6 5 4 5 6 8 9 9 9 7 6 5 6 5 5 5 6 5 4 3 1 2 3 4 3 2 1 1 3 4 4 4 4 3 3 3 3 3 3 3 4 4 5 5 5 5 6 6 7 7 8 8 9 9 9 10 11 13 14 14
9 9 9 9 9 9 9 8 8 8 7 6 6 7 8 8 8 8 8 9 9 10 10 10 10 9 8 5 2 2 3 5 7 8 8 8 6 5 5 4 4 5 5 4 3 3 2 1 3 4 4 3 3 3 5 6 6 6 6 5 5 4 3 3 3 3 4 4 4 4 5 5 5 6 6 7 7 8 8 8 9 10 11 12 13 14
8 8 8 8 8 8 8 8 8 8 8 8 8 9 9 9 9 8 8 9 10 10 11 11 11 11 10 9 7 4 2 3 5 6 6 6 6 6 6 5 5 5 6 4 3 2 1 2 2 4 5 5 6 7 7 7 6 6 6 6 5 4 3 3 3 3 3 4 4 4 4 5 5 6 6 7 7 8 8 8 8 9 10 11 12 13
7 7 7 8 8 8 8 8 8 8 8 8 8 9 9 8 7 7 7 8 9 10 11 12 13 13 13 13 12 10 6 4 4 5 5 5 5 5 6 6 5 5 6 5 5 4 4 3 4 4 6 8 9 9 8 6 5 4 5 5 4 4 3 3 3 4 4 4 5 5 5 5 5 6 6 7 7 7 7 7 7 8 9 10 11 12
7 7 7 7 7 7 7 7 8 8 8 8 8 7 7 7 6 6 5 6 7 9 10 12 13 14 14 14 14 14 12 9 7 8 7 7 6 5 6 6 6 6 6 6 5 5 5 6 6 6 8 10 11 10 8 5 3 3 4 4 4 3 3 3 4 5 6 6 6 6 6 6 6 6 6 7 7 7 7 7 7 7 8 9 10 11
8 8 8 8 8 8 8 8 9 9 8 8 8 7 7 7 6 6 6 6 6 7 9 11 12 13 14 14 14 14 13 10 10 10 10 9 8 7 8 8 8 8 7 7 6 5 4 6 7 7 7 9 12 12 8 5 3 3 4 4 4 4 4 5 6 7 7 8 8 8 7 7 7 7 7 7 7 7 7 7 7 7 7 8 9 10
9 9 10 10 9 9 9 9 10 9 9 9 8 8 8 8 8 8 8 8 8 8 8 9 11 13 14 15 15 14 12 11 10 11 10 10 10 10 8 8 8 8 8 8 7 6 5 5 7 8 9 9 9 9 7 5 4 4 5 5 6 6 7 7 8 9 9 10 10 10 9 9 9 9 8 8 8 8 8 8 8 8 8 8 9 10
10 11 11 11 11 11 10 10 10 10 9 9 9 9 9 9 10 10 10 9 9 9 9 9 10 11 13 14 15 14 13 12 12 11 11 11 11 11 10 9 9 9 8 9 9 9 7 6 7 8 9 9 7 5 6 9 10 8 7 7 8 9 9 10 10 11 11 12 12 12 12 11 11 10 10 9 9 9 10 10 9 10 10 10 11 11
12 12 13 13 12 12 11 11 10 10 9 9 9 10 10 10 11 11 11 11 10 10 10 9 9 10 11 13 14 15 15 15 14 13 12 12 13 12 12 11 11 10 9 9 9 10 9 7 7 7 7 8 9 10 12 14 15 14 12 11 10 10 11 11 12 13 13 14 14 14 14 13 12 12 11 11 11 11 11 12 11 11 12 12 12 12
13 14 14 14 13 12 11 11 10 9 8 9 9 10 11 11 11 11 11 11 11 11 11 10 10 10 10 12 13 15 16 16 16 16 15 14 14 14 13 12 12 12 11 10 10 10 10 9 8 7 6 8 10 12 14 15 15 16 17 16 13 11 10 10 11 13 14 15 15 15 14 13 12 12 12 11 11 12 12 12 12 12 12 13 13 13
14 15 15 14 13 12 11 10 9 8 8 9 10 11 11 12 12 12 12 12 12 12 12 12 11 11 11 12 13 14 15 17 17 18 18 17 17 16 15 14 14 13 13 12 12 13 13 13 13 13 12 11 12 13 14 15 17 18 19 18 16 13 10 9 9 10 12 12 13 12 12 11 11 11 11 11 11 12 12 12 12 12 13 13 14 15
15 15 15 13 12 11 10 10 9 9 9 10 11 11 12 12 12 12 12 12 13 13 13 13 13 13 13 13 13 14 15 16 17 19 20 20 20 19 19 18 17 16 15 15 16 16 16 16 17 17 17 17 17 18 19 19 19 19 18 17 18 18 15 12 9 8 8 8 9 9 9 10 10 11 11 11 12 12 12 13 13 14 14 15 15 16
16 16 14 13 12 11 10 10 10 10 11 11 12 12 12 12 12 12 12 13 13 14 14 14 14 14 15 14 14 13 14 15 16 17 19 20 21 22 22 21 21 20 19 19 19 20 20 20 20 20 20 19 18 18 19 20 20 19 18 18 19 19 16 11 6 5 6 7 8 8 9 10 11 12 12 13 13 13 13 14 14 15 15 16 16 17
16 15 14 12 11 11 10 11 11 11 12 12 12 12 12 12 12 12 13 13 13 13 13 13 13 13 14 14 13 13 13 13 14 15 16 18 20 21 23 23 23 23 22 22 22 22 23 23 22 22 22 21 19 18 19 20 20 20 19 18 17 15 11 10 9 8 9 10 10 10 11 11 12 13 14 14 14 14 14 14 14 15 15 16 17 18
15 15 13 12 12 12 12 12 12 13 13 13 13 13 13 12 12 12 12 13 12 12 11 10 11 11 12 13 13 12 11 11 12 12 14 15 16 18 20 21 22 23 23 22 22 21 22 22 22 22 21 20 19 19 19 19 19 19 19 18 17 16 15 15 15 15 14 13 12 11 11 11 12 13 14 15 15 14 14 14 14 15 15 16 17 17
15 15 14 14 14 14 14 14 14 14 14 14 14 14 13 13 13 12 12 12 11 10 9 9 9 10 11 13 13 12 11 10 10 10 11 12 13 15 16 17 18 20 20 21 21 20 19 19 19 19 18 17 17 18 18 19 19 19 19 18 18 18 19 19 18 17 17 16 14 12 11 11 12 14 15 15 15 15 14 15 15 16 16 16 16 17
17 16 16 16 16 16 16 15 15 15 15 15 15 15 14 13 13 12 12 11 10 9 8 8 9 10 11 12 13 13 13 11 9 8 8 9 11 12 13 14 14 15 16 17 17 17 17 17 17 16 15 15 16 17 18 18 18 19 20 19 19 19 19 19 19 19 18 17 16 14 12 11 12 14 16 16 16 16 16 16 16 16 16 16 16 16
19 19 18 18 18 18 17 17 17 17 17 17 17 16 15 14 13 12 11 11 10 9 9 9 10 12 13 14 14 14 14 13 11 9 7 8 9 10 11 11 11 12 12 13 13 14 14 14 14 14 15 14 15 16 18 19 19 19 19 19 19 19 20 21 20 18 17 17 16 15 12 12 13 15 16 16 17 18 18 17 17 17 16 16 15 15
20 20 20 20 19 19 19 19 19 19 18 18 18 17 15 14 13 12 12 11 11 10 10 11 12 14 15 15 15 15 15 15 14 12 9 8 8 9 10 10 10 11 11 12 12 13 13 13 13 13 15 16 16 16 18 19 19 20 20 20 19 20 21 21 20 18 17 16 15 14 13 13 14 15 15 17 18 19 19 19 18 17 16 16 15 15
20 20 20 20 20 20 20 20 20 20 19 19 18 17 15 14 13 13 12 12 12 12 12 13 14 15 16 16 15 15 15 15 15 13 11 10 9 9 9 10 11 11 12 12 13 13 13 14 15 16 17 18 18 18 19 20 20 20 20 20 20 20 20 20 19 17 16 15 14 12 11 11 12 12 14 16 18 19 20 19 18 17 16 15 14 14
18 19 19 20 20 20 20 20 20 20 19 19 18 17 15 14 13 13 13 13 13 14 14 15 15 16 17 17 16 16 15 15 15 14 13 11 10 10 10 10 11 12 13 13 13 13 13 14 16 18 19 19 20 20 21 21 21 20 19 20 20 20 20 20 18 15 14 13 12 11 10 10 10 10 12 15 18 19 20 19 17 16 14 13 12 13
17 18 18 19 19 19 19 19 19 19 19 18 17 17 15 15 14 14 14 14 15 16 16 16 17 17 18 18 17 17 16 16 16 16 14 12 11 11 11 11 12 13 13 12 10 10 9 10 11 14 17 18 18 19 20 20 20 19 19 19 19 18 18 18 16 14 13 12 11 10 9 9 10 11 12 14 16 17 18 18 17 15 13 12 12 13
Wind_Direction
189 190 195 201 207 211 212 218 217 209 201 193 184 181 190 197 198 193 189 182 182 184 186 188 186 181 173 161 148 140 142 146 149 153 160 169 178 184 188 191 196 204 213 226 242 261 280 289 293 293 295 298 300 302 301 296 290 281 269 252 245 239 236 239 242 242 241 239 232 222 213 212 220 230 239 247 255 268 285 301 306 306 308 308 309 309
185 185 187 194 201 202 197 211 217 213 203 192 184 181 182 185 182 176 170 169 172 176 179 182 184 184 180 173 162 154 156 163 172 181 190 197 205 214 222 233 246 256 261 272 282 293 301 306 307 306 305 306 305 303 297 286 272 254 238 228 225 224 221 215 209 206 206 210 210 210 211 216 223 232 240 250 264 277 286 296 299 300 299 301 302 303
176 177 180 186 192 193 189 192 202 213 210 200 192 187 185 183 179 173 168 168 170 173 177 179 182 185 187 184 179 175 178 187 201 213 221 227 235 247 259 269 275 278 280 283 289 295 300 305 307 307 308 308 307 299 282 262 248 235 227 223 221 219 217 214 210 207 207 210 214 217 222 227 233 238 246 258 273 283 284 287 289 290 292 295 298 301
172 172 176 180 184 190 192 190 193 201 206 207 199 193 189 186 182 179 175 174 175 177 180 183 187 192 194 194 193 193 198 207 216 223 229 238 248 257 266 271 274 277 280 281 285 290 294 297 297 297 298 297 285 252 227 226 227 226 226 226 224 221 219 219 221 223 225 230 233 237 240 242 244 247 253 262 272 279 281 282 283 284 287 292 294 296
173 174 177 178 179 183 191 196 198 200 204 203 198 192 190 189 188 187 186 187 187 187 189 193 197 201 204 206 207 211 217 221 224 225 226 232 241 248 253 256 261 266 271 275 278 281 280 279 272 263 253 232 211 203 206 212 218 223 227 228 228 227 227 231 237 243 250 255 259 261 261 259 259 259 260 262 266 271 275 278 280 282 285 288 289 290
174 177 180 180 179 180 184 194 202 203 199 193 187 185 186 189 191 193 194 198 202 202 201 199 199 200 203 207 212 216 219 220 220 218 215 217 222 226 228 232 239 249 255 258 259 258 251 240 225 213 205 199 199 200 206 213 220 226 231 235 238 240 244 251 260 269 276 280 282 281 280 277 275 273 270 268 267 266 267 271 275 279 283 284 286 287
173 176 181 181 182 182 182 191 201 203 193 182 176 174 176 181 185 190 194 199 204 206 203 195 185 179 180 187 195 200 202 202 202 202 203 205 208 210 211 215 222 228 233 231 227 220 212 204 198 196 197 198 201 206 213 220 227 234 241 246 252 258 264 272 279 284 288 290 291 291 290 289 288 286 283 280 275 269 265 264 268 273 276 280 282 285
168 174 179 178 179 180 183 189 197 198 190 179 171 169 169 170 173 177 182 187 190 192 191 184 174 166 166 171 177 181 183 187 191 195 200 202 203 203 203 205 207 210 209 206 202 199 198 197 197 199 203 207 213 219 226 233 241 248 255 261 266 272 277 281 285 288 290 290 290 290 290 290 290 289 288 286 282 275 267 262 262 266 271 275 278 281
168 170 176 180 179 178 179 187 193 192 186 178 172 171 173 173 172 172 176 180 184 186 188 187 180 171 165 168 172 174 178 182 190 198 206 210 210 206 203 202 201 200 200 201 202 204 207 209 212 215 220 225 231 237 243 250 256 262 267 271 275 279 281 283 285 286 286 286 286 286 286 286 286 285 284 283 280 275 268 260 258 261 266 270 272 275
172 170 172 179 186 188 184 188 191 189 181 177 176 178 180 181 180 179 181 184 186 186 188 192 190 182 173 174 176 178 180 185 195 208 224 236 237 232 225 219 214 212 215 219 223 226 228 229 231 234 238 242 246 250 255 260 265 270 274 277 279 281 282 283 283 283 283 283 283 283 282 281 280 279 277 275 273 270 265 258 254 256 260 262 265 268
169 171 169 173 184 195 196 194 190 185 179 178 180 183 184 187 188 188 188 188 186 185 186 190 191 187 180 181 183 187 190 197 206 216 226 235 242 246 246 245 241 239 237 240 244 246 247 246 247 248 250 253 255 257 261 265 269 274 278 281 282 283 283 283 283 284 284 284 284 282 280 277 274 271 268 266 264 261 257 254 252 253 255 258 261 264
163 167 168 169 174 182 190 189 184 179 178 181 188 194 194 191 193 196 195 190 187 184 184 185 186 186 185 186 190 197 204 214 222 227 230 231 234 239 243 246 247 247 245 246 248 250 250 249 249 251 255 257 259 261 264 268 273 277 280 282 283 283 283 284 286 288 289 288 286 282 277 272 267 262 258 256 253 251 249 248 249 250 251 253 256 259
164 166 167 168 170 173 177 177 177 178 182 188 194 198 198 193 193 197 199 195 189 184 182 182 182 185 190 195 201 208 218 228 237 242 242 239 238 239 240 242 244 245 245 247 250 251 250 247 244 243 247 251 255 258 261 266 270 274 276 277 278 279 281 285 288 291 293 292 290 285 278 269 259 251 248 245 243 242 242 243 244 246 247 248 250 253
163 165 166 168 171 175 177 178 179 183 188 191 194 194 191 188 189 192 194 191 187 184 184 185 185 189 196 204 212 221 229 237 243 246 244 241 240 240 240 244 247 250 252 257 260 260 257 254 249 245 246 248 252 256 259 263 267 270 271 272 274 277 281 285 289 291 292 291 291 289 285 273 258 247 243 238 235 234 236 239 241 242 243 244 245 247
165 165 166 170 175 179 183 185 186 188 189 191 191 190 187 186 187 187 184 179 179 181 184 189 193 198 205 213 221 229 236 240 243 243 239 234 232 232 233 238 245 253 259 263 266 265 263 261 258 255 255 256 257 259 263 266 269 271 273 274 277 280 284 288 289 287 282 278 280 282 280 275 264 254 246 236 229 227 228 233 236 237 237 239 240 242
171 171 169 174 179 183 187 189 191 191 189 189 189 188 186 183 183 183 179 174 173 176 181 187 195 207 219 224 227 231 235 238 241 240 236 228 224 224 227 231 239 248 256 261 263 263 264 263 263 264 264 264 264 264 264 266 269 272 274 277 280 284 287 289 287 278 263 265 270 272 270 266 262 256 249 240 231 225 225 229 231 232 233 235 237 238
176 177 178 179 182 185 188 190 191 191 189 187 187 187 186 184 183 181 178 174 173 175 181 184 188 201 218 227 230 232 231 231 233 234 231 223 220 224 231 240 245 250 256 259 260 261 262 263 266 269 270 270 268 266 263 263 264 267 271 275 279 284 286 285 279 265 249 257 264 265 263 260 256 251 246 240 235 231 230 232 232 231 232 234 236 236
180 183 184 184 184 186 188 189 190 190 189 186 185 185 187 188 187 185 183 179 178 180 187 192 197 199 192 195 217 226 223 217 219 225 226 224 225 233 244 254 259 260 260 259 258 259 261 265 269 272 274 273 270 266 262 261 261 264 268 272 276 280 282 280 272 257 245 249 255 259 257 255 251 248 244 240 237 235 234 234 235 234 234 235 237 237
184 188 189 188 187 186 187 190 191 190 189 188 186 185 186 189 191 192 191 191 190 191 195 200 208 213 208 194 204 214 215 211 215 225 231 238 243 250 261 267 268 265 260 257 256 258 261 266 271 274 275 273 269 264 260 260 262 266 271 275 278 279 280 277 269 256 243 240 243 249 253 252 250 247 244 242 240 238 237 236 235 235 236 237 238 240
186 190 192 192 189 187 187 189 192 192 192 193 193 191 188 190 194 196 197 199 201 203 205 207 211 215 218 215 215 219 221 222 227 237 250 260 266 271 275 274 270 263 256 253 255 258 262 268 272 274 274 272 268 263 262 265 270 275 278 280 280 280 279 275 267 256 245 237 236 239 246 249 249 249 247 245 244 242 241 241 239 238 239 239 240 242
188 189 191 194 193 190 188 190 192 194 197 200 200 197 195 196 197 199 201 204 207 210 213 211 210 213 219 219 223 229 237 239 244 255 269 276 279 280 280 274 265 257 252 252 254 259 263 268 271 274 276 275 272 268 266 267 271 274 276 275 275 275 276 272 264 254 244 238 235 234 236 239 243 246 247 248 247 247 245 245 245 244 243 244 244 245
190 188 189 193 195 196 195 195 194 195 199 204 205 204 203 203 202 203 206 207 208 210 211 209 210 214 218 221 229 241 250 255 259 266 277 278 277 276 270 264 259 258 256 258 261 264 266 270 274 277 279 278 274 269 264 262 263 265 265 266 270 274 275 270 261 250 241 236 233 232 232 232 236 242 247 249 249 249 248 248 248 247 247 247 248 248
195 192 189 190 194 199 200 198 196 196 200 204 207 209 211 210 208 207 207 207 206 205 205 207 213 219 223 226 235 246 256 261 264 267 271 264 261 261 256 264 270 270 270 272 275 275 275 276 280 282 280 277 272 267 260 255 254 256 259 264 269 273 272 264 254 245 240 236 234 232 231 232 237 244 250 250 250 249 249 249 249 249 249 250 250 250
196 195 192 191 193 197 199 198 196 197 200 203 206 209 211 211 210 208 208 207 208 209 212 217 221 226 230 235 241 248 253 257 259 258 253 252 256 261 268 281 286 284 283 284 284 284 284 286 287 283 277 272 269 264 257 253 253 258 263 267 269 268 263 254 245 240 238 236 233 231 229 229 235 242 246 247 247 246 246 246 247 248 249 250 250 250
193 194 193 193 194 195 197 199 200 201 203 205 206 207 208 209 209 211 212 212 212 214 217 221 226 235 243 245 247 248 246 247 247 245 241 247 258 266 277 293 299 299 298 298 297 296 294 294 288 277 269 264 260 257 254 260 272 276 275 270 264 256 246 240 235 234 232 231 230 228 228 228 231 234 236 237 239 240 242 243 244 246 247 248 249 250
191 193 195 195 195 195 196 198 201 204 207 209 210 211 213 213 214 214 213 213 214 217 221 225 230 237 244 245 247 244 239 237 236 237 238 244 259 270 279 296 306 308 309 312 313 311 306 299 284 262 248 239 227 204 124 2 337 315 294 272 252 237 227 224 223 224 227 229 231 232 233 234 235 237 237 239 240 242 243 245 247 248 249 251 251 252
183 186 187 188 188 188 190 193 198 203 209 213 217 220 222 221 219 216 213 216 219 221 219 217 221 229 236 240 243 240 235 232 231 233 238 245 255 267 275 294 306 310 312 318 322 323 315 300 256 217 199 179 150 112 69 35 14 358 339 289 234 216 212 212 215 222 229 235 241 243 245 246 247 247 247 248 249 249 251 252 253 254 256 257 257 256
161 164 163 165 167 171 174 178 184 194 204 213 220 225 228 227 221 216 216 221 222 219 215 213 216 223 228 234 241 242 239 236 232 230 233 236 242 254 266 289 303 310 315 320 325 327 316 237 181 169 160 146 127 90 47 20 7 359 357 339 215 204 207 212 219 228 239 249 255 257 258 257 257 256 255 255 255 256 256 257 258 259 260 261 260 260
157 158 158 160 164 169 173 177 181 187 197 213 225 232 234 232 227 223 225 227 223 217 214 216 221 226 231 241 250 254 251 243 232 226 226 227 236 251 267 283 297 308 318 322 326 330 331 169 168 163 157 149 142 71 350 340 330 321 309 288 255 232 224 225 229 238 248 255 260 262 263 262 262 262 261 261 261 261 262 263 264 264 264 264 264 264
170 170 173 176 180 186 190 194 197 199 203 215 231 243 249 247 242 236 236 234 229 223 220 222 226 229 234 245 259 264 256 239 227 222 223 222 231 250 266 278 289 302 315 321 323 323 321 176 175 176 176 182 209 272 309 317 313 305 294 281 265 250 238 232 232 236 241 248 253 257 261 263 265 265 266 267 267 268 268 269 270 270 269 269 269 270
190 191 194 197 201 203 207 211 215 217 219 225 236 249 258 260 257 249 242 238 234 232 230 230 230 231 230 230 234 258 258 224 214 216 221 220 229 251 265 271 280 291 302 310 315 315 309 224 199 199 206 221 248 281 302 308 305 296 284 272 262 251 242 236 235 236 238 242 247 253 259 263 265 266 266 267 268 269 270 271 272 273 273 274 275 276
203 205 208 212 214 215 216 219 224 229 234 239 245 252 258 262 261 255 247 240 236 235 235 236 236 235 233 229 226 229 248 219 210 214 220 221 232 251 262 265 269 278 287 287 285 277 252 289 242 220 231 247 267 285 300 305 300 288 276 265 255 247 236 235 241 246 248 252 256 261 265 266 266 266 265 264 265 266 267 269 271 274 276 277 279 281
205 209 214 219 222 223 223 227 233 240 247 250 251 252 254 256 256 253 247 241 237 235 235 237 239 240 240 239 238 239 244 245 239 234 233 230 237 250 259 262 261 263 269 266 260 256 255 277 273 260 261 270 281 291 303 308 301 281 267 258 251 242 234 237 250 261 266 269 271 272 274 274 273 270 268 266 265 266 266 268 269 273 278 281 284 287
204 208 213 220 225 230 236 242 249 255 258 258 255 251 249 250 252 254 254 249 244 241 238 238 240 242 244 244 245 245 247 250 249 246 246 239 238 246 256 258 255 251 249 247 243 243 250 256 265 275 281 286 292 299 309 314 297 263 254 248 248 249 247 253 264 272 274 273 274 275 278 280 279 277 273 270 269 269 270 269 269 271 278 284 288 291
206 209 213 219 225 233 241 249 255 259 260 259 256 253 252 255 259 266 270 270 264 256 249 244 242 243 244 245 246 247 248 248 247 245 244 239 238 243 253 254 253 247 238 235 231 232 241 248 256 267 282 292 297 302 307 309 286 252 244 241 245 252 256 257 263 269 270 271 273 276 280 283 283 281 278 276 276 276 276 276 275 274 276 280 285 289
209 211 214 220 226 233 241 248 253 254 254 253 252 254 256 261 267 273 278 281 278 272 263 254 248 244 244 245 245 246 245 244 243 241 239 235 235 239 244 249 251 247 239 233 231 233 240 251 258 266 276 287 294 299 301 301 289 265 251 245 245 248 250 253 258 262 266 270 274 278 282 284 284 283 280 280 280 282 282 282 281 279 277 276 278 281
215 217 221 226 231 238 245 249 251 250 248 247 248 251 256 261 267 272 276 279 280 278 273 264 255 249 245 244 244 244 242 239 239 237 234 233 233 234 236 243 248 248 242 236 234 236 243 253 266 272 275 276 276 281 289 297 297 290 277 264 255 251 249 253 258 261 265 269 273 277 281 282 282 280 279 279 281 283 284 283 283 283 283 281 280 278
222 225 229 233 238 243 248 250 250 248 245 244 246 249 253 257 262 267 271 275 278 279 278 274 266 257 251 247 245 244 242 238 237 235 232 232 233 234 234 238 244 247 246 242 241 242 244 252 263 272 274 271 271 276 285 294 298 298 297 290 277 265 257 255 257 260 263 267 271 274 276 278 279 278 278 278 280 281 282 283 284 286 286 286 285 283
229 232 235 238 242 246 249 251 252 251 248 246 246 246 249 252 257 262 268 272 276 278 279 277 273 266 258 251 247 244 242 239 236 234 233 233 234 235 236 236 239 242 245 245 245 246 246 249 253 260 269 275 278 281 286 291 294 297 301 301 295 283 269 261 258 259 261 264 268 270 272 274 276 276 277 277 279 280 282 284 285 287 288 289 290 290
235 237 240 242 245 248 251 255 257 256 252 247 243 243 245 249 254 261 267 273 277 278 278 276 273 268 261 254 248 244 242 239 237 235 234 235 236 237 238 238 239 241 243 245 248 250 251 252 255 258 263 269 276 280 284 285 287 292 298 301 300 298 293 282 271 264 261 263 266 270 272 273 274 275 277 278 279 281 284 287 289 290 292 293 294 294
239 242 244 246 249 252 255 258 258 255 250 246 243 242 245 249 255 261 268 274 275 276 276 274 271 268 263 257 252 246 243 240 238 236 236 236 237 238 240 242 244 245 246 248 251 254 255 257 258 260 263 266 271 275 278 280 284 288 292 293 294 297 299 295 285 273 265 264 267 271 276 278 279 279 279 279 279 281 283 286 289 290 291 292 293 293
242 244 247 249 252 254 255 254 251 248 246 245 244 245 248 253 260 266 271 273 274 273 271 270 268 266 264 260 255 250 247 244 242 240 238 238 238 239 241 243 246 248 250 252 254 256 258 260 261 262 263 265 268 271 275 278 281 284 284 285 290 296 298 294 286 278 277 278 278 280 282 284 284 284 283 281 280 279 279 281 283 286 288 289 291 292
246 248 251 252 253 252 251 248 246 244 244 244 246 249 254 260 267 272 274 274 274 272 270 267 265 264 263 260 255 249 244 243 243 242 241 240 240 240 242 243 245 248 250 252 255 257 259 261 262 263 265 266 266 267 271 274 278 279 279 281 285 289 290 288 287 289 288 287 287 287 288 288 288 286 283 281 279 277 277 278 280 283 286 288 290 291
250 252 253 251 249 247 247 245 244 244 245 246 249 253 259 265 270 273 274 273 271 269 264 260 259 260 262 262 259 252 243 238 238 240 241 241 241 241 242 243 244 246 248 250 252 254 257 259 261 263 266 266 265 264 265 268 272 274 275 277 277 275 272 280 288 293 294 293 292 292 293 292 290 286 282 279 277 277 278 280 282 284 286 288 290 291
251 251 249 247 245 245 244 244 245 247 248 251 254 257 262 267 270 271 269 267 265 261 255 251 252 257 262 265 266 265 260 249 239 237 238 240 240 240 240 241 241 242 244 246 249 251 253 256 259 263 266 266 264 261 261 263 266 269 271 273 273 273 275 280 286 290 291 294 297 298 298 297 293 288 285 282 280 280 282 285 287 288 289 290 290 291
247 246 245 244 244 244 244 246 248 249 251 253 256 259 262 265 267 266 263 260 256 252 247 243 246 252 258 263 268 272 273 269 258 246 237 236 236 237 237 237 238 239 241 244 247 250 253 255 259 263 264 263 261 259 259 259 262 265 268 271 272 274 277 280 283 286 289 292 295 298 300 297 292 289 288 287 287 287 287 288 289 291 292 293 293 293
245 245 245 245 245 246 247 248 249 250 252 254 256 259 261 262 261 258 255 252 249 247 245 244 245 250 254 260 266 271 275 276 272 261 243 233 231 232 233 234 236 237 241 244 246 249 252 255 258 260 259 258 258 259 259 259 259 261 265 269 272 274 275 277 281 286 290 291 293 296 298 295 291 289 290 292 292 292 290 290 291 292 295 296 296 296
247 247 247 248 248 248 248 248 248 249 251 253 256 258 259 258 255 251 249 247 246 246 246 246 248 251 256 260 265 269 273 275 276 270 257 243 235 232 233 235 237 240 243 245 247 249 251 254 255 256 255 254 254 257 260 262 261 262 265 269 271 273 274 279 284 289 290 291 292 294 294 291 289 289 293 294 293 291 290 291 293 295 296 297 296 296
249 249 249 249 249 248 248 248 248 248 250 252 254 256 255 253 250 247 247 247 247 248 247 248 250 253 257 261 266 269 272 274 274 271 264 254 245 240 240 240 241 242 244 246 249 252 255 258 258 256 254 253 252 254 258 262 264 266 268 269 270 271 273 279 285 290 292 294 294 294 291 286 285 287 290 289 288 287 289 291 293 294 295 295 295 295
248 248 248 248 247 247 246 246 246 246 248 250 252 253 252 249 246 244 245 247 249 249 250 250 252 254 256 261 266 269 271 272 272 270 266 259 252 250 251 248 245 243 242 244 249 255 262 266 266 264 260 255 253 252 255 259 264 267 268 269 270 271 274 279 285 292 297 298 298 295 290 284 281 281 282 281 282 285 288 290 291 292 292 292 292 291
247 246 245 245 245 245 245 244 244 245 246 248 249 250 249 246 243 242 243 245 247 249 250 252 253 253 254 259 264 267 269 270 270 269 265 260 255 255 257 255 249 243 238 238 244 254 263 270 272 271 267 260 255 253 252 255 259 262 264 267 271 273 276 281 287 295 300 300 298 294 288 282 277 275 275 275 278 282 286 288 289 289 290 289 288 287